Regional Weather Roundup
Issued by NWS Newport/Morehead, NC

Current Version | Previous Version | Graphics & Text | Print | Product List | Glossary On
Versions: 1 2 3 4 5 6 7 8 9 10 11 12 13 14 15 16 17 18 19 20 21 22 23 24 25 26 27 28 29 30 31 32 33 34 35 36 37 38 39 40 41 42 43 44 45 46 47 48 49 50
000 ASUS42 KMHX 162310 RWRMHX WEATHER ROUNDUP FOR EASTERN NORTH CAROLINA NATIONAL WEATHER SERVICE NEWPORT/MOREHEAD CITY NC 700 PM EDT TUE SEP 16 2014 NOTE: "FAIR" INDICATES FEW OR NO CLOUDS BELOW 12,000 FEET WITH NO SIGNIFICANT WEATHER AND/OR OBSTRUCTIONS TO VISIBILITY NCZ015>017-031-032-045>047-102-103-170000- NORTH COAST CITY SKY/WX TMP DP RH WIND PRES REMARKS EDENTON CLOUDY 77 67 71 CALM 29.95S ELIZABETH CITY PTCLDY 73 61 65 E7 29.97R KITTY HAWK PTCLDY 74 59 58 NE5 29.95F MANTEO CLEAR 74 61 63 NE7 29.97S $$ NCZ045>047-081-094-103-104-170000- CENTRAL COAST CITY SKY/WX TMP DP RH WIND PRES REMARKS FRISCO CLEAR 75 69 81 SW5 29.95S SWANQUARTER N/A 79 N/A N/A VRB2 29.91S $$ NCZ095-097-098-100-101-170000- SOUTHERN COAST CITY SKY/WX TMP DP RH WIND PRES REMARKS BEAUFORT CLEAR 78 71 79 S7 29.95F CEDAR ISLAND N/A 79 N/A N/A S6 29.97F JACKSONVILLE PTCLDY 78 72 81 S6 29.95R NEWPORT NOT AVBL PINEY ISLAND CLOUDY 78 71 79 S3 29.94F WILMINGTON MOCLDY 78 71 79 S6 29.95S $$ NCZ011>013-027>030-043-044-078>080-089-090>093-098-170000- COASTAL PLAIN CITY SKY/WX TMP DP RH WIND PRES REMARKS AHOSKIE CLEAR 72 67 84 CALM 29.96S CLINTON CLEAR 78 71 80 CALM 29.95S ELIZABETHTOWN CLEAR 80 67 64 CALM 29.95S GOLDSBORO CLEAR 79 71 74 CALM 29.93F GREENVILLE CLEAR 79 70 73 CALM 29.97S HAVELOCK MOCLDY 78 71 79 S6 29.96S KENANSVILLE CLEAR 76 70 83 CALM 29.95F KINSTON CLEAR 79 70 73 CALM 29.96S NEW BERN CLEAR 81 66 60 N3 29.95F RICHLANDS CLEAR 79 68 69 CALM 29.95S ROANOKE RAPIDS NOT AVBL ROCKY MOUNT CLEAR 73 67 81 CALM 29.95F WASHINGTON MOCLDY 77 69 75 CALM 29.96S WHITEVILLE CLEAR 78 69 74 CALM 29.94S $$ AMZ130-135-150-152-154-156-158-170-250-252-270-ANZ085-086-088-633-658-670-170000- MARINE OBSERVATIONS STATION/POSITION TIME TEMP WIND PRES WAVE SWELL AIR SEA DIR/SP/G HT/PER HT/PER (UTC) (F) (DEG/KT/KT) (MB) (FT/S) (FT/S) CHESAPEAKE LIGHT 2200 74 30/ 7/ 7 1015.1 BUOY 44014 2300 75 79 360/ 10/ 12 1014.2 2/14 2/14 DUCK 2300 75 77 50/ 9/ 10 1013.9 2E DUCK 2300 N/A 2/14 2/14 OREGON INLET 2300 74 76 40/ 8/ 10 1014.6 BUOY 44095 2300 78 N/A 2/13 2/13 20E OREGON INLET NOT AVBL HATTERAS CG 2300 78 79 200/ 3/ 5 1014.7 DIAMOND BUOY 2300 77 CALM / 2 1014.5 2/ 7 2/ 7 CAPE LOOKOUT 2200 78 190/ 6/ 8 1014.2 BEAUFORT LAB 2300 78 80 200/ 5/ 7 1013.7 30 SE NEW RIVER 2300 79 82 160/ 6/ 8 1014.5 2/12 2/12 5 SE WRIGHTSVILL 2200 76 82 160/ 6/ 8 N/A BUOY 41002 2211 76 83 50/ 12/ 16 1015.0 3/12 3/12 BUOY 41004 2300 79 84 30/ 8/ 10 1013.9 2/ 8 2/ 8 $$

USA.gov is the U.S. government's official web portal to all federal, state and local government web resources and services.